Regional Weather Roundup
Issued by NWS State College, PA

Home | Current Version | Previous Version | Graphics & Text | Print | Product List | Glossary Off
Versions: 1 2 3 4 5 6 7 8 9 10 11 12 13 14 15 16 17 18 19 20 21 22 23 24 25 26 27 28 29 30 31 32 33 34 35 36 37 38 39 40 41 42 43 44 45 46 47 48 49 50

000
ASUS41 KCTP 270203
RWRCTP

REGIONAL WEATHER ROUNDUP
NATIONAL WEATHER SERVICE STATE COLLEGE PA
1000 PM EDT SAT MAY 26 2018

Note: "fair" indicates few or no clouds below 12,000 feet with no
significant weather and/or obstructions to visibility.

* = STATION THAT DOES NOT REPORT PRECIPITATION /E.G. RAIN...SNOW...ETC/
    THUNDER OR FOG.

PAZ002>004-007>009-013>016-020>023-029>032-270300-
WESTERN PENNSYLVANIA

CITY           SKY/WX    TMP DP  RH WIND       PRES   REMARKS
ERIE           LGT RAIN  69  60  73 CALM      29.86R
MEADVILLE      CLOUDY    67  65  93 CALM      29.89R
FRANKLIN*      LGT RAIN  69  63  81 S7        29.91R
NEW CASTLE     LGT RAIN  69  69 100 S3        29.89S
BEAVER COUNTY  NOT AVBL
BUTLER*        FAIR      68  67  96 CALM      29.90R
PITTSBURGH INT TSTM      71  68  90 S5        29.90R
PITTSBURGH     LGT RAIN  70  68  93 S5        29.90R
INDIANA*       CLOUDY    72  68  88 SW7       29.95R
LATROBE        CLEAR     70  70 100 CALM      29.91R
WASHINGTON CO* LGT RAIN  69  66  90 W3        29.93R
$$

PAZ004>006-010>012-017>019-024>028-033>037-041-042-045-046-049>053-270300-
CENTRAL PENNSYLVANIA

CITY           SKY/WX    TMP DP  RH WIND       PRES   REMARKS
BRADFORD       CLOUDY    67  60  78 CALM      29.93R
DUBOIS         CLOUDY    70  61  73 CALM      29.92R
CLEARFIELD     LGT RAIN  69  64  84 N7        29.92R
JOHNSTOWN      FAIR      70  63  78 SW8       29.96R
ALTOONA        LGT RAIN  74  67  78 W8        29.92R
STATE COLLEGE  CLOUDY    75  57  53 CALM      29.90R
WILLIAMSPORT   CLOUDY    73  65  75 W3        29.85R
SELINSGROVE    FAIR      72  65  78 CALM      29.85R
FT INDIANTOWN  FAIR      74  66  75 CALM      29.87R
CAPITAL CITY   FAIR      78  64  61 W8        29.85R
HARRISBURG     MOCLDY    77  66  68 S3        29.85R
YORK           FAIR      74  71  91 CALM      29.87R
$$

PAZ038>040-043-044-047-048-054-055-060>062-067>071-270300-
EASTERN PENNSYLVANIA

CITY           SKY/WX    TMP DP  RH WIND       PRES   REMARKS
SCRANTON       CLOUDY    75  59  57 E6        29.89R
MOUNT POCONO   CLOUDY    68  58  70 CALM      29.94R
ALLENTOWN      FAIR      82  64  54 S7        29.86R
QUAKERTOWN*    CLEAR     77  70  78 CALM      29.88R
READING        FAIR      80  70  71 S3        29.85R
LANCASTER      FAIR      79  69  71 SW5       29.86R
COATESVILLE    FAIR      77  70  78 CALM      29.90R
POTTSTOWN      FAIR      74  69  85 CALM      29.88R
BLUE BELL      FAIR      75  70  83 CALM      29.88R
DOYLESTOWN     FAIR      78  68  71 S3        29.87R
WILLOW GROVE   NOT AVBL
NORTH PHILA    FAIR      80  67  64 SW5       29.87R
PHILADELPHIA   CLOUDY    73  70  90 CALM      29.87R
$$




USA.gov is the U.S. government's official web portal to all federal, state and local government web resources and services.